DW4989 Weather Reports


time (UTC)temp
F
wind
direction
speed
knots
gust
knots
rain 1hr
in
rain 24hr
in
rain mn
in
humidity
%
barometer
mb
20190825041705 67 164 7.8 13.0 0.00 0.08 0.00 92 1015.6
20190825040202 67 135 6.1 13.0 0.00 0.08 0.00 93 1015.7
20190825034638 66 137 4.3 8.7 0.00 0.08 0.00 94 1015.8
20190825033135 66 94 3.5 8.7 0.00 0.08 0.00 95 1015.9
20190825031705 65 65 4.3 7.0 0.00 0.08 0.00 95 1016.2
20190825030209 65 82 5.2 7.0 0.00 0.08 0.00 95 1016.3
20190825024636 66 78 4.3 7.8 0.00 0.08 0.00 94 1016.3
20190825023145 66 92 2.6 4.3 0.00 0.08 0.00 94 1016.1
20190825021617 66 103 2.6 4.3 0.00 0.08 0.00 94 1016.4
20190825020122 66 94 3.5 4.3 0.00 0.08 0.00 93 1016.3
20190825014644 66 94 1.7 6.1 0.00 0.08 0.00 91 1016.1
20190825013047 67 81 2.6 5.2 0.00 0.08 0.00 90 1016.1
20190825011610 67 75 3.5 4.3 0.00 0.08 0.00 89 1016.3
20190825010100 67 82 3.5 5.2 0.00 0.08 0.00 89 1016.3
20190825004558 68 86 2.6 4.3 0.00 0.08 0.00 87 1016.2
20190825003102 68 104 3.5 5.2 0.00 0.08 0.00 86 1016.0
20190825001610 69 88 3.5 7.0 0.00 0.08 0.00 85 1016.2
20190824213028 68 87 3.5 7.0 0.00 0.08 0.08 92 1016.4
20190824211522 68 107 0.0 5.2 0.02 0.08 0.08 93 1016.4
20190824210021 68 92 1.7 3.5 0.03 0.08 0.08 93 1016.5
20190824204541 67 94 0.0 2.6 0.04 0.08 0.08 93 1016.7
20190824203031 67 229 0.0 1.7 0.05 0.08 0.08 94 1016.7
20190824201518 67 219 0.0 1.7 0.03 0.06 0.06 95 1016.7
20190824200054 66 207 0.0 1.7 0.02 0.05 0.05 94 1016.7
20190824194534 66 209 0.0 2.6 0.02 0.04 0.04 94 1016.8
20190824191509 66 205 0.0 1.7 0.02 0.03 0.03 93 1017.0
20190824190014 67 148 0.9 4.3 0.02 0.03 0.03 90 1017.2
20190824184513 68 145 0.9 5.2 0.02 0.02 0.02 89 1017.2
20190824183009 68 201 2.6 8.7 0.01 0.01 0.01 87 1017.5
20190824180213 69 148 1.7 7.0 0.01 0.01 0.01 85 1017.6
20190824174650 70 161 4.3 8.7 0.00 0.00 0.00 81 1017.5
20190824173144 71 187 1.7 5.2 0.00 0.00 0.00 80 1017.6
20190824171736 71 136 5.2 9.6 0.00 0.00 0.00 75 1017.6
20190824170143 72 146 2.6 6.1 0.00 0.00 0.00 76 1017.5
20190824164621 71 161 1.7 5.2 0.00 0.00 0.00 77 1017.5
20190824163153 70 135 1.7 6.1 0.00 0.00 0.00 79 1017.6
20190824161641 70 211 1.7 6.1 0.00 0.00 0.00 79 1017.6
20190824160132 70 210 1.7 7.0 0.00 0.00 0.00 79 1017.6
20190824154632 71 148 1.7 7.0 0.00 0.00 0.00 79 1017.7
20190824153205 70 183 3.5 8.7 0.00 0.00 0.00 79 1017.8
20190824151715 70 215 2.6 9.6 0.00 0.00 0.00 79 1017.8
20190824150254 70 192 5.2 10.4 0.00 0.00 0.00 80 1017.9
20190824144635 69 213 7.0 13.0 0.00 0.00 0.00 80 1017.9
20190824143336 68 113 5.2 11.3 0.00 0.00 0.00 84 1017.8
20190824141547 67 203 2.6 7.8 0.00 0.00 0.00 86 1018.1
20190824140109 67 210 5.2 19.1 0.00 0.00 0.00 85 1017.9
20190824134639 68 180 7.8 14.8 0.00 0.00 0.00 86 1017.8
20190824133059 68 107 6.1 10.4 0.00 0.00 0.00 88 1017.6
20190824131652 68 193 3.5 13.0 0.00 0.00 0.00 88 1017.7
20190824130130 68 134 8.7 16.5 0.00 0.00 0.00 88 1017.0
20190824124621 68 99 11.3 20.0 0.00 0.00 0.00 89 1016.8
20190824123043 68 110 7.8 14.8 0.00 0.00 0.00 89 1017.1
20190824121612 68 128 9.6 20.0 0.00 0.00 0.00 89 1017.2
20190824120109 68 150 12.2 16.5 0.00 0.00 0.00 89 1017.5
20190824114535 68 133 10.4 15.6 0.00 0.00 0.00 89 1017.6
20190824113042 68 122 8.7 20.0 0.00 0.00 0.00 89 1017.7
20190824111556 68 138 7.0 16.5 0.00 0.00 0.00 89 1017.8
20190824110106 68 94 8.7 14.8 0.00 0.00 0.00 88 1017.9
20190824104545 68 110 7.0 12.2 0.00 0.00 0.00 88 1018.2
20190824103014 68 111 7.8 13.9 0.00 0.00 0.00 88 1018.1
20190824101511 68 134 10.4 13.9 0.00 0.00 0.00 87 1018.4
20190824100029 68 142 8.7 13.9 0.00 0.00 0.00 88 1018.6
20190824094505 68 121 10.4 14.8 0.00 0.00 0.00 88 1018.7
20190824091615 68 118 7.0 13.0 0.00 0.00 0.00 87 1018.9
20190824090218 68 126 5.2 13.0 0.00 0.00 0.00 88 1019.0
20190824084655 68 132 4.3 10.4 0.00 0.00 0.00 87 1019.1
20190824083147 69 134 5.2 11.3 0.00 0.00 0.00 87 1019.1
20190824081615 69 103 5.2 10.4 0.00 0.00 0.00 87 1019.4
20190824080126 69 118 6.1 11.3 0.00 0.00 0.00 87 1019.4
20190824074631 69 140 7.0 9.6 0.00 0.00 0.00 87 1019.6
20190824073102 69 126 7.0 10.4 0.00 0.00 0.00 87 1019.6
20190824071635 69 134 7.8 13.0 0.00 0.00 0.00 86 1019.7
20190824070149 69 125 8.7 13.0 0.00 0.00 0.00 86 1019.9
20190824064609 70 117 7.0 13.9 0.00 0.00 0.00 86 1019.9
20190824063127 70 125 7.8 13.9 0.00 0.00 0.00 86 1020.2
20190824061545 70 134 6.1 11.3 0.00 0.00 0.00 87 1019.9
20190824060121 70 171 6.1 11.3 0.00 0.00 0.00 88 1020.2
20190824054612 70 113 6.1 10.4 0.00 0.00 0.00 88 1020.4
20190824051524 69 172 4.3 10.4 0.00 0.00 0.00 91 1020.0
20190824050042 69 128 5.2 7.8 0.00 0.00 0.00 91 1019.7
20190824044534 69 101 4.3 11.3 0.00 0.00 0.00 91 1019.5